Location: Unspecified
(0.0000°N, 0.0000°E)
Time: 15:55:35
(UTC+00:00)

Envisat - Pass Details

Date: 10 February 2018
Orbit: 764 x 766 km, 98.2° (Epoch: 20 May)

Event Time Altitude Azimuth Distance (km) Brightness Sun altitude
Rises 18:50:01 0° 131° (SE) 3,226 5.9 -8.7°
Reaches altitude 10° 18:53:47 10° 102° (ESE) 2,296 4.9 -9.6°
Enters shadow 18:55:22 12° 83° (E) 2,137 4.6 -10.0°
